Hourly Data Report for December 28, 2017

MUSKOKA
ONTARIO

44°58'29.000" N
79°18'12.000" W
281.90 m
6115529
71532
YQA

Download Data

Hourly Data (December 2017)
Hourly Data Report for December 28, 2017
TIME
LST
Temp Definition
°C
Dew Point Definition
°C
Rel Hum Definition
%
Precip. Amount Definition
mm

Wind Dir Definition
10's deg

Wind Spd Definition
km/h
Visibility Definition
km
Stn Press Definition
kPa
Hmdx Definition


Wind Chill Definition


Weather Definition


00:00 -28.8 -31.6 78 0.0 31 5 16.1 100.08   -34 LegendNANA
01:00 -30.6 -33.9 73 0.0 34 8 16.1 100.05   -39 LegendNANA
02:00 -29.5 -32.3 77 0.0   0 16.1 100.06     LegendNANA
03:00 -31.6 -34.8 74 0.0   0 16.1 100.10     LegendNANA
04:00 -32.6 -35.8 74 0.0 LegendMM 4 16.1 100.11   -37 LegendNANA
05:00 -34.0 -37.4 72 0.0   0 16.1 100.11     LegendNANA
06:00 -34.1 -37.4 73 0.0   0 16.1 100.12     LegendNANA
07:00 -35.2 -38.7 71 0.0 LegendMM 4 16.1 100.17   -40 LegendNANA
08:00 -36.1 -39.8 70 0.0   0 16.1 100.21     LegendNANA
09:00 -34.8 -38.3 71 0.0   0 16.1 100.24     LegendNANA
10:00 -27.0 -30.0 77 0.0   0 16.1 100.25     LegendNANA
11:00 -24.0 -28.4 68 0.0 33 5 16.1 100.23   -29 LegendNANA
12:00 -22.6 -28.0 62 0.0 30 8 16.1 100.15   -29 LegendNANA
13:00 -20.7 -26.6 60 0.0 24 9 16.1 100.07   -28 LegendNANA
14:00 -19.5 -25.6 59 0.0 LegendMM 4 16.1 100.02   -23 LegendNANA
15:00 -19.1 -25.2 59 0.0 29 8 16.1 99.99   -25 LegendNANA
16:00 -19.0 -24.6 62 0.0 LegendMM 4 16.1 99.99   -22 LegendNANA
17:00 -22.5 -24.9 82 0.0   0 16.1 99.95     LegendNANA
18:00 -25.7 -28.7 76 0.0 LegendMM LegendMM LegendMM 99.94     LegendNANA
19:00 -26.1 -29.0 77 0.0 LegendMM LegendMM LegendMM 99.88     LegendNANA
20:00 -25.4 -28.3 77 0.0 LegendMM LegendMM LegendMM 99.81     LegendNANA
21:00 -25.0 -27.9 77 0.0 LegendMM LegendMM LegendMM 99.74     LegendNANA
22:00 -25.0 -27.9 77 0.0 LegendMM LegendMM LegendMM 99.68     LegendNANA
23:00 -25.2 -28.1 77 0.0 LegendMM LegendMM LegendMM 99.66     LegendNANA

Notes on Data Quality.

Legend

  • E = Estimated
  • M = Missing
  • NA = Not Available*
  • [empty] = Indicates an unobserved value
Date modified: